This demonstration page uses our WeatherBlox Daily Observations layout. Learn more.

Left ArrowRight Arrow

40.92501, -98.34201

Hourly Observations for August 17, 2020

Temp ( °F °C ) Dew Point ( °F °C ) Humidity (%) Winds ( mph kmh ) Pressure ( in mb ) Visibility ( mi km ) Precip ( " mm )
12:53 am 00:53 Clear 66 18.9 63 17.2 90 90 WSW 7 11 30.16 1021 10 16 0.00 0.00
1:53 am 01:53 Clear 66 18.9 62 16.7 87 87 WSW 7 11 30.17 1022 8 13 0.00 0.00
2:53 am 02:53 Clear 65 18.3 62 16.7 90 90 WNW 5 7 30.19 1022 8 13 0.00 0.00
3:53 am 03:53 Clear 63 17.2 60 15.6 90 90 NW 5 7 30.18 1022 8 13 0.00 0.00
4:53 am 04:53 Clear 63 17.2 59 15 87 87 WNW 6 9 30.17 1022 10 16 0.00 0.00
5:53 am 05:53 Clear 62 16.7 58 14.4 86 86 WNW 3 6 30.18 1022 9 14 0.00 0.00
6:53 am 06:53 Sunny 61 16.1 58 14.4 90 90 W 7 11 30.21 1023 7 11 0.00 0.00
7:53 am 07:53 Sunny 64 17.8 59 15 84 84 NW 5 7 30.24 1024 10 16 0.00 0.00
8:53 am 08:53 Sunny 70 21.1 63 17.2 79 79 NNW 7 11 30.24 1024 10 16 0.00 0.00
9:53 am 09:53 Sunny 75 23.9 61 16.1 62 62 Calm 30.24 1024 10 16 0.00 0.00
10:53 am 10:53 Sunny 79 26.1 59 15 50 50 W 3 6 30.24 1024 10 16 0.00 0.00
11:53 am 11:53 Sunny 81 27.2 59 15 47 47 Calm 30.23 1024 10 16 0.00 0.00
12:53 pm 12:53 Sunny 84 28.9 61 16.1 46 46 VRB 3 6 30.22 1023 10 16 0.00 0.00
1:53 pm 13:53 Sunny 85 29.4 62 16.7 46 46 NE 6 9 30.20 1023 10 16 0.00 0.00
2:53 pm 14:53 Sunny 86 30 61 16.1 43 43 Calm 30.18 1022 10 16 0.00 0.00
3:53 pm 15:53 Sunny 88 31.1 60 15.6 39 39 Calm 30.16 1021 10 16 0.00 0.00
4:53 pm 16:53 Sunny 86 30 63 17.2 46 46 NNE 6 9 30.14 1021 10 16 0.00 0.00
5:53 pm 17:53 Sunny 86 30 62 16.7 45 45 E 7 11 30.14 1021 10 16 0.00 0.00
6:53 pm 18:53 Sunny 84 28.9 59 15 43 43 E 7 11 30.14 1021 10 16 0.00 0.00
7:53 pm 19:53 Sunny 80 26.7 64 17.8 58 58 SE 3 6 30.15 1021 10 16 0.00 0.00
8:53 pm 20:53 Clear 77 25 67 19.4 71 71 ESE 3 6 30.16 1021 10 16 0.00 0.00
9:53 pm 21:53 Clear 73 22.8 65 18.3 76 76 Calm 30.18 1022 10 16 0.00 0.00
10:53 pm 22:53 Clear 72 22.2 65 18.3 79 79 Calm 30.17 1022 10 16 0.00 0.00
11:53 pm 23:53 Clear 69 20.6 64 17.8 84 84 E 3 6 30.16 1021 10 16 0.00 0.00

Powered by AerisWeather